Terug naar catalogus

DELTA 1 DEB

ActiefLEO
NORAD 10201·DEBRIS·🇺🇸 United States

Gelanceerd Jul 14, 1977 vanaf Cape Canaveral Space Force Station

Loading…

Volgende Passages (komende 24 uur)

TLE

VersSource: Space-Track

Epoch: Sep 14, 2026, 08:48 UTC

1 10201U 77065AE  26257.36721096  .00000866  00000-0  14000-3 0  9993
2 10201  29.0875 259.3109 0663245 192.2480 166.1211 13.75407735421151

Volg DELTA 1 DEB in realtime met AllMySat

Download on the App Store